Location: Newark
(43.0000°N, 1.6781°W)
Time: 09:44:22
(UTC+00:00)

Explorer 7 - All Passes

Search period start: 07 October 2022 00:00
Search period end: 17 October 2022 00:00
Orbit: 481 x 667 km, 50.3° (Epoch: 06 October)

Date Brightness Start Highest point End Pass type
(mag) Time Alt. Az. Time Alt. Az. Time Alt. Az.
07 Oct - 08:15:46 10° SSW 08:20:02 33° SE 08:24:21 10° ENE daylight
07 Oct - 09:55:29 10° WSW 10:00:19 66° NNW 10:05:07 10° ENE daylight
07 Oct - 11:36:55 10° WNW 11:41:22 35° N 11:45:42 10° ENE daylight
07 Oct - 13:18:03 10° WNW 13:22:37 41° NNE 13:26:58 10° E daylight
07 Oct - 14:58:38 10° WNW 15:03:18 70° SW 15:07:43 10° SE daylight
07 Oct - 16:40:49 10° W 16:42:59 13° SW 16:45:05 10° SSW daylight
08 Oct - 08:17:41 10° SW 08:22:17 47° SE 08:26:57 10° ENE daylight
08 Oct - 09:58:03 10° W 10:02:47 52° NNW 10:07:30 10° ENE daylight
08 Oct - 11:39:32 10° WNW 11:43:57 34° N 11:48:16 10° ENE daylight
08 Oct - 13:20:28 10° NW 13:25:08 50° NNE 13:29:36 10° E daylight
08 Oct - 15:01:07 10° WNW 15:05:37 48° SW 15:09:53 10° SE daylight
09 Oct - 06:42:19 10° SSE 06:44:50 14° SE 06:47:21 10° E daylight
09 Oct - 08:19:49 10° SW 08:24:35 68° SE 08:29:25 10° ENE daylight
09 Oct - 10:00:39 10° W 10:05:17 43° NNW 10:09:54 10° ENE daylight
09 Oct - 11:42:06 10° WNW 11:46:32 34° N 11:50:51 10° ENE daylight
09 Oct - 13:22:51 10° WNW 13:27:37 63° NNE 13:32:09 10° ESE daylight
09 Oct - 15:03:41 10° WNW 15:07:51 32° SW 15:11:48 10° SSE daylight
10 Oct - 06:43:20 10° S 06:46:55 22° SE 06:50:35 10° E daylight
10 Oct - 08:22:06 10° WSW 08:26:56 88° NNW 08:31:48 10° ENE daylight
10 Oct - 10:03:17 10° W 10:07:49 38° N 10:12:19 10° ENE daylight
10 Oct - 11:44:36 10° WNW 11:49:06 37° N 11:53:29 10° ENE daylight
10 Oct - 13:25:13 10° WNW 13:30:01 84° NNE 13:34:36 10° ESE daylight
10 Oct - 15:06:26 10° W 15:10:00 22° SW 15:13:25 10° S daylight
11 Oct - 06:44:53 10° SSW 06:49:04 32° SE 06:53:21 10° ENE daylight
11 Oct - 08:24:31 10° WSW 08:29:19 67° NNW 08:34:10 10° ENE daylight
11 Oct - 10:05:55 10° WNW 10:10:22 35° N 10:14:47 10° ENE daylight
11 Oct - 11:47:01 10° WNW 11:51:37 42° NNE 11:56:06 10° E daylight
11 Oct - 13:27:35 10° WNW 13:32:21 72° SW 13:36:54 10° SE daylight
11 Oct - 15:09:36 10° W 15:12:04 14° SW 15:14:28 10° SSW daylight
12 Oct - 06:46:45 10° SSW 06:51:16 46° SE 06:55:54 10° ENE daylight
12 Oct - 08:27:02 10° W 08:31:44 53° NNW 08:36:30 10° ENE daylight
12 Oct - 10:08:29 10° WNW 10:12:55 34° N 10:17:18 10° ENE daylight
12 Oct - 11:49:24 10° WNW 11:54:06 50° NNE 11:58:41 10° E daylight
12 Oct - 13:30:01 10° WNW 13:34:37 50° SW 13:39:01 10° SE daylight
13 Oct - 05:11:31 10° SSE 05:13:48 14° SE 05:16:07 10° E visible
13 Oct - 06:48:50 10° SW 06:53:30 67° SE 06:58:20 10° ENE daylight
13 Oct - 08:29:35 10° W 08:34:12 44° NNW 08:38:51 10° ENE daylight
13 Oct - 10:11:00 10° WNW 10:15:27 35° N 10:19:51 10° ENE daylight
13 Oct - 11:51:43 10° WNW 11:56:32 63° NNE 12:01:11 10° ESE daylight
13 Oct - 13:32:31 10° WNW 13:36:48 34° SW 13:40:55 10° SSE daylight
14 Oct - 05:12:24 10° S 05:15:50 21° SE 05:19:23 10° E visible
14 Oct - 06:51:04 10° WSW 06:55:48 89° NW 07:00:40 10° ENE daylight
14 Oct - 08:32:11 10° W 08:36:41 38° N 08:41:13 10° ENE daylight
14 Oct - 10:13:27 10° WNW 10:17:58 37° N 10:22:25 10° ENE daylight
14 Oct - 11:54:02 10° WNW 11:58:54 82° NNE 12:03:35 10° ESE daylight
14 Oct - 13:35:11 10° W 13:38:55 23° SW 13:42:31 10° S daylight
15 Oct - 05:13:53 10° SSW 05:17:56 30° SE 05:22:07 10° ENE visible
15 Oct - 06:53:25 10° WSW 06:58:08 68° NNW 07:02:59 10° ENE daylight
15 Oct - 08:34:45 10° WNW 08:39:10 35° N 08:43:38 10° ENE daylight
15 Oct - 10:15:50 10° WNW 10:20:27 42° NNE 10:25:00 10° E daylight
15 Oct - 11:56:22 10° WNW 12:01:12 73° SW 12:05:51 10° SE daylight
15 Oct - 13:38:14 10° W 13:40:58 15° SW 13:43:37 10° SSW daylight
16 Oct - 05:15:41 10° SSW 05:20:04 45° SE 05:24:38 10° ENE visible
16 Oct - 06:55:53 10° W 07:00:31 53° NNW 07:05:17 10° ENE daylight
16 Oct - 08:37:17 10° WNW 08:41:41 34° N 08:46:06 10° ENE daylight
16 Oct - 10:18:09 10° WNW 10:22:53 50° NNE 10:27:32 10° E daylight
16 Oct - 11:58:44 10° WNW 12:03:25 51° SW 12:07:57 10° SE daylight
